RH
12 12 12 14 16 18 19 19 22 31 42 47 51 57 79 76 70 53 56 58 64 73 80 75 76 90 89 94 95 97 97 98 96 96 95 90 76 60 47 46 46 62 60
12 12 12 15 22 23 24 25 24 27 31 38 44 66 78 77 74 65 61 58 71 72 74 77 95 96 96 95 95 96 98 96 97 95 94 98 84 73 57 49 46 62 56
9 10 13 21 24 26 27 26 26 27 32 40 52 73 76 77 84 84 70 67 70 68 75 74 90 96 94 96 95 95 90 95 98 96 87 97 92 84 77 66 42 60 54
10 12 18 22 24 28 29 33 31 30 32 42 53 75 74 77 72 75 67 66 69 70 69 83 91 96 95 95 94 92 90 91 93 96 91 85 75 78 92 66 48 55 57
19 19 21 21 21 23 29 37 38 35 34 39 51 70 77 64 57 62 67 73 74 78 74 82 93 96 96 92 93 96 94 93 91 89 93 94 87 67 67 71 54 48 48
22 20 20 21 20 24 31 36 39 39 40 42 51 73 77 62 52 56 60 69 79 78 84 85 90 88 90 92 92 92 94 94 91 90 90 89 86 70 71 71 65 57 53
23 23 21 21 23 26 30 34 32 40 43 50 54 77 76 69 55 56 59 66 70 82 89 93 91 91 90 90 90 93 93 92 95 96 93 93 84 71 67 58 59 60 54
24 22 23 27 28 29 32 37 38 36 42 50 68 70 76 71 60 57 55 60 63 68 89 91 91 91 89 88 91 94 94 92 95 95 92 93 92 75 63 52 59 64 53
22 26 29 33 36 37 40 40 45 42 40 50 72 74 77 74 64 58 54 55 59 57 74 86 86 88 89 87 91 94 93 92 90 92 93 91 91 91 69 53 52 59 70
27 30 31 36 39 40 44 45 52 47 42 52 72 77 80 69 66 59 59 57 61 65 85 92 92 93 93 92 92 92 91 92 92 93 92 91 90 88 84 77 79 54 58
33 31 34 37 39 43 44 51 61 52 44 64 73 80 82 73 68 62 60 60 65 67 67 79 88 92 93 93 95 94 93 96 94 93 93 92 94 93 90 81 66 75 58
50 42 40 41 42 46 49 56 69 72 66 74 82 86 84 79 69 66 64 65 69 61 60 71 88 91 92 92 93 95 93 94 98 97 94 93 94 96 93 95 84 58 64
50 46 46 48 49 50 55 64 74 87 78 80 87 87 88 84 73 68 68 72 68 66 64 72 80 88 92 93 91 90 91 93 91 95 95 92 92 92 93 94 92 81 78
55 53 53 55 53 55 62 74 82 88 87 84 86 92 89 82 74 69 70 77 66 66 67 73 78 88 92 93 92 92 93 94 93 95 93 93 91 89 92 92 95 95 95
59 59 63 65 59 62 69 80 83 85 90 89 92 93 90 81 76 72 72 77 69 66 68 74 74 80 84 84 89 87 90 92 93 93 93 92 90 94 94 91 93 95 97
64 64 64 67 69 72 80 84 86 86 92 93 94 92 94 85 75 75 77 80 77 66 72 76 79 80 68 97 99 90 87 87 90 95 93 88 97 96 97 96 96 92 94
66 72 76 75 78 82 87 91 88 86 91 94 93 94 92 84 79 77 77 75 78 79 72 69 72 74 71 98 99 98 82 86 85 85 88 88 86 93 87 99 100 99 98
72 83 82 81 83 86 88 91 87 87 95 96 95 94 88 80 77 76 78 78 71 78 81 83 81 76 76 100 100 100 84 89 82 81 78 84 94 93 96 99 99 98 97
78 84 80 84 92 93 94 92 91 93 91 92 93 92 92 88 76 78 78 75 78 79 80 79 78 78 87 100 100 98 89 94 94 89 86 85 89 100 100 98 98 98 98
77 86 81 83 94 100 98 100 100 98 98 95 94 91 91 92 93 94 93 93 79 82 88 92 94 98 91 97 99 97 96 100 100 99 99 99 99 100 100 98 96 98 98
84 92 94 96 98 100 100 100 100 98 100 99 93 96 93 93 93 93 94 95 96 96 97 97 96 95 96 96 98 99 95 100 99 99 98 99 99 98 98 97 98 97 94
88 89 94 95 99 99 100 100 98 100 100 100 100 95 99 96 89 93 93 92 94 96 97 97 97 96 96 95 96 98 98 96 96 98 98 99 96 96 95 94 94 93 94
96 95 94 93 90 98 98 98 99 95 98 96 96 97 98 94 90 94 94 93 92 95 96 94 96 97 95 95 93 94 95 93 95 94 94 92 92 92 92 92 92 93 95
94 96 94 94 93 92 90 85 71 65 72 80 87 86 92 93 91 88 92 93 94 95 95 96 97 97 96 96 95 95 93 89 93 94 94 92 91 90 92 93 94 96 96
83 90 95 95 93 92 86 75 76 68 66 69 69 75 81 84 87 92 93 93 97 94 95 96 95 96 97 98 92 91 94 94 92 91 92 94 93 92 92 92 91 90 84
64 70 80 85 90 87 85 78 75 76 77 77 76 82 80 81 84 84 90 95 94 94 93 89 90 95 92 89 88 90 94 96 88 88 90 92 91 85 78 75 70 65 62
Wind_Speed
14 15 12 2 5 9 10 11 11 12 11 12 12 11 10 8 10 12 14 14 11 12 9 8 7 8 9 9 9 6 10 7 10 9 7 7 8 8 7 9 11 9 8
17 15 7 7 7 10 10 12 12 13 13 12 12 8 8 8 8 10 11 12 12 10 11 11 7 9 7 9 10 9 5 3 7 8 6 5 5 6 7 7 12 11 8
16 12 8 7 8 10 7 9 13 13 13 15 8 7 8 7 8 10 11 13 11 13 10 12 9 9 9 9 11 12 13 8 7 5 3 6 4 7 5 9 10 14 9
6 6 8 9 6 6 5 9 11 12 13 15 13 16 10 11 11 10 11 11 14 13 12 11 11 10 8 11 10 11 11 10 14 6 2 3 8 8 6 8 9 11 10
10 8 6 5 5 5 6 6 10 11 13 14 16 14 13 13 11 12 15 13 12 11 12 13 11 10 8 11 13 11 11 9 11 11 8 2 4 10 8 9 10 11 11
7 5 3 4 7 5 7 9 9 12 12 13 16 15 15 17 13 13 11 10 7 10 11 12 10 11 11 12 11 13 12 12 10 9 9 7 9 10 7 8 9 9 10
3 2 3 7 9 9 8 9 12 12 13 14 16 13 16 18 16 13 10 12 10 9 11 11 11 9 11 11 11 12 14 13 11 9 9 4 5 7 6 9 9 9 6
5 3 6 9 11 12 13 14 16 16 13 13 12 15 15 11 10 12 11 10 9 10 10 11 10 11 11 11 11 10 10 13 11 11 9 7 5 6 8 8 10 9 10
3 7 8 11 13 14 17 17 16 20 16 13 12 14 13 13 10 13 11 9 10 9 13 12 14 13 13 13 12 9 12 13 14 12 12 10 6 3 8 7 9 7 6
6 8 8 12 13 15 17 18 18 24 20 13 13 12 11 13 11 10 13 12 10 10 12 12 11 10 11 11 12 10 11 13 11 9 13 10 7 5 4 3 2 8 7
6 6 8 10 13 14 17 18 19 24 16 12 13 13 12 13 11 11 12 11 11 11 12 14 12 12 12 11 10 10 11 12 12 10 14 13 7 7 3 5 10 2 5
14 12 13 14 14 16 18 17 17 18 4 10 10 12 12 12 12 11 13 13 11 12 11 9 11 11 12 12 13 10 10 11 9 11 14 13 8 6 5 1 5 11 6
12 13 14 15 16 16 17 17 16 17 6 8 10 12 13 13 10 12 13 11 10 11 10 5 9 11 10 10 11 12 12 12 13 11 12 13 13 11 5 4 3 3 2
11 11 13 15 15 16 17 16 16 16 7 9 10 10 10 8 10 12 13 11 11 12 11 8 9 10 9 10 10 9 9 10 9 9 11 12 13 14 11 7 4 1 2
12 13 14 15 17 18 17 16 14 13 7 9 9 9 8 8 10 12 11 10 10 11 11 9 8 10 10 9 11 10 10 9 9 9 9 9 11 13 12 8 8 8 6
12 14 15 16 17 18 17 17 15 15 16 9 9 9 9 9 12 10 9 10 10 12 10 11 8 7 7 11 11 10 9 10 10 8 9 10 12 13 15 16 12 11 9
13 14 16 15 16 17 16 16 15 19 12 9 9 9 10 10 9 9 9 10 10 10 11 11 10 10 8 13 12 12 9 9 10 10 9 9 8 10 10 7 10 11 12
14 13 14 15 16 16 15 14 16 19 8 6 5 7 11 10 8 8 9 8 9 10 9 8 8 8 7 13 12 12 8 8 11 10 11 11 9 11 9 9 9 9 9
12 12 12 14 15 16 15 13 17 16 13 12 11 10 8 5 9 9 8 7 8 7 7 5 7 7 8 9 7 10 8 5 7 8 7 9 10 12 16 12 12 12 11
11 12 13 13 13 15 14 12 14 15 12 13 11 12 11 11 9 7 6 4 3 8 9 11 11 15 8 16 10 8 5 5 5 6 7 12 4 8 19 14 15 13 10
12 11 10 10 12 13 13 12 13 15 12 9 12 14 12 11 10 9 8 7 10 11 11 12 11 13 14 12 11 2 3 3 6 6 5 6 15 19 20 15 10 11 13
13 12 10 11 11 12 12 10 13 9 8 6 16 12 16 10 8 12 11 11 10 13 11 10 10 10 12 20 20 19 16 13 11 10 8 11 24 26 25 19 26 23 14
11 11 11 11 12 10 10 12 11 9 8 18 19 15 13 13 10 14 11 10 12 10 9 8 9 8 8 11 28 27 26 24 17 13 22 28 30 29 23 25 22 14 9
11 11 11 11 12 13 13 13 12 13 12 17 19 16 16 17 15 13 12 11 9 8 8 8 8 7 7 7 7 9 12 22 17 14 14 17 19 18 14 13 12 8 8
10 11 11 11 13 13 14 15 14 12 15 16 13 13 11 16 16 17 13 12 14 10 8 8 7 7 8 8 11 11 9 10 12 12 10 10 11 10 10 10 8 7 8
11 11 12 12 12 12 14 15 14 14 13 13 10 10 11 12 12 12 15 30 25 26 25 23 14 13 20 23 23 20 18 16 11 10 10 10 9 10 10 10 9 9 10
Wind_Direction
231 227 228 148 224 258 264 252 240 227 202 211 215 203 201 207 214 214 196 192 202 199 209 218 210 162 175 174 168 170 179 187 176 160 165 184 191 180 171 167 150 161 168
237 228 213 211 231 252 261 256 241 235 218 214 216 192 190 204 212 217 196 207 184 192 203 208 169 162 164 166 173 170 143 153 178 167 133 141 191 175 173 230 159 172 175
242 226 176 221 239 244 259 265 255 244 223 223 180 188 190 203 205 203 206 202 195 202 202 199 175 168 168 173 174 167 166 165 179 183 126 143 162 149 185 227 191 155 182
214 194 189 216 234 262 297 291 276 251 229 215 190 203 204 201 208 208 205 200 198 202 202 192 178 175 171 173 177 178 176 171 180 178 272 342 132 165 162 212 205 158 192
180 184 196 239 271 299 307 302 288 263 241 215 221 194 212 213 205 202 200 204 198 196 194 191 176 176 175 181 177 176 176 194 185 184 171 156 184 183 154 180 200 181 188
168 201 229 269 274 339 329 307 280 264 243 219 217 189 204 224 209 201 194 195 189 192 195 192 181 185 184 180 185 187 181 180 191 184 181 176 184 190 155 168 195 191 180
174 248 291 320 325 303 307 307 295 265 243 220 229 196 204 226 222 194 190 191 187 186 185 179 182 187 189 183 181 183 187 183 178 170 165 142 199 170 169 187 177 178 192
161 269 350 348 328 325 321 315 304 288 244 222 219 218 208 230 224 187 191 193 198 195 173 174 176 181 183 184 181 183 179 182 174 165 169 160 211 185 210 167 164 185 195
4 6 356 4 341 330 320 310 300 283 266 217 217 214 216 228 203 193 191 185 187 192 180 183 184 186 182 186 181 181 178 181 186 189 182 182 199 193 233 192 170 175 178
359 347 0 0 340 330 320 309 297 280 257 210 206 209 205 209 213 180 190 184 177 180 163 171 178 171 176 180 182 184 184 186 193 190 188 183 187 198 232 284 323 168 185
308 339 9 351 339 337 328 320 313 287 237 189 199 201 192 208 214 185 180 172 177 182 181 175 181 178 178 176 182 185 183 185 189 184 185 188 167 178 201 219 215 230 266
27 355 347 335 337 341 338 331 320 316 205 187 184 188 191 216 205 172 186 169 171 179 181 169 172 179 180 179 181 182 185 186 179 182 185 183 163 149 136 72 286 188 217
6 351 337 334 331 341 339 333 319 329 213 194 177 193 198 219 179 168 181 172 159 170 174 175 166 174 171 174 187 195 193 195 195 183 176 181 176 182 183 161 203 231 149
2 341 338 334 330 340 340 334 320 331 215 183 190 189 192 190 169 170 175 170 167 168 164 161 171 173 168 171 176 182 187 194 193 190 181 175 178 184 186 192 196 196 90
350 341 342 338 337 339 341 330 317 326 245 185 178 168 169 170 184 177 169 165 166 170 169 157 172 165 170 178 179 184 183 181 188 190 190 189 179 181 175 182 196 192 189
345 342 347 341 339 337 339 322 326 326 311 161 161 160 182 188 178 171 166 156 165 173 163 160 172 176 179 155 165 175 182 187 189 182 192 201 186 185 185 190 193 191 194
345 355 352 345 342 339 336 327 336 323 293 157 161 166 179 181 162 159 164 171 168 165 181 171 177 184 182 152 173 184 185 187 197 201 195 199 195 196 194 135 116 66 53
359 360 354 346 348 339 340 331 6 342 4 68 100 179 177 165 162 155 167 175 176 167 171 166 182 191 192 164 172 182 207 194 199 200 206 196 184 189 160 130 93 74 50
10 1 356 354 344 349 342 352 18 353 360 41 37 28 50 97 149 169 169 167 163 162 165 162 187 186 81 28 182 175 206 191 193 201 206 218 199 181 149 135 122 108 96
18 4 2 2 353 351 341 9 18 359 1 15 33 32 30 49 62 47 44 29 113 91 75 68 51 35 53 22 20 211 193 197 109 57 39 21 5 181 165 148 147 133 133
16 9 8 2 2 350 350 12 21 12 348 344 45 43 34 39 47 61 44 65 82 86 76 73 56 51 33 24 15 9 244 121 92 76 57 44 76 90 86 99 105 107 109
19 12 16 12 8 1 354 2 38 1 341 320 50 36 45 23 38 59 57 60 77 83 76 76 63 49 45 44 49 65 78 89 91 78 72 73 82 82 85 90 106 106 102
15 14 19 15 14 8 14 4 14 15 23 39 39 41 49 44 41 55 58 59 58 67 71 72 72 58 47 52 60 67 76 81 84 86 89 85 84 84 82 88 85 85 91
23 15 20 21 15 10 9 14 11 47 45 44 37 37 44 48 37 49 46 50 52 63 72 76 75 73 64 59 62 70 77 79 82 85 84 83 85 77 84 77 69 73 79
21 27 24 25 20 9 13 15 9 26 51 58 58 58 59 67 61 55 52 57 52 59 72 68 73 77 73 69 83 88 90 92 99 101 92 91 81 85 80 83 92 94 85
24 27 26 30 30 25 21 21 22 28 43 52 44 48 54 60 65 63 65 56 62 65 69 73 78 78 87 90 90 89 90 97 101 91 85 83 88 90 90 91 89 86 90